M I D A S
Marine Information and Data Acquisition System
Tripno 948 of the Zeeleeuw from 2005-07-08 06:37:41 to 2005-07-08 14:21:59
Back to CruiseResearch ActivitiesStationsMapUnderway DataData graphs

EquipmentUnitsComments
TimeDGPSUTC
LatitudeDGPSDM.mWGS84
LongitudeDGPSDM.mWGS84
SpeedMeteo Stationm/sRelative wind speed
DirectionMeteo StationdegRelative wind direction
TemperatureMeteo Stationdeg CelciusAir temperature
PressureMeteo StationPaAtmospheric pressure
HumidityMeteo Station%Relative humidity
Missing or incorrect values are displayed as -999
Metereological data collected by the RV Zeeleeuw from 2005-07-08 06:32:46 to 2005-07-08 14:33:27
Time Latitude Longitude Speed Direction Temperature Pressure Humidity
2005-07-08 06:33 51°13.681 2°55.905 3.5 245 15.7 101500 89
2005-07-08 06:34 51°13.681 2°55.904 3.5 210 15.6 101500 88
2005-07-08 06:35 51°13.682 2°55.904 6.1 236 15.7 101500 88
2005-07-08 06:36 51°13.682 2°55.904 3.3 229 15.7 101500 88
2005-07-08 06:37 51°13.682 2°55.904 4.4 244 15.7 101500 88
2005-07-08 06:38 51°13.684 2°55.896 5.7 242 15.7 101500 88
2005-07-08 06:39 51°13.707 2°55.808 6.4 229 15.7 101510 88
2005-07-08 06:40 51°13.725 2°55.732 6.7 297 15.6 101510 88
2005-07-08 06:41 51°13.72 2°55.711 5.1 335 15.6 101510 88
2005-07-08 06:42 51°13.763 2°55.683 8.7 10 15.6 101510 89
2005-07-08 06:43 51°13.868 2°55.621 9.4 17 15.6 101500 89
2005-07-08 06:44 51°13.996 2°55.542 10.1 11 15.6 101500 90
2005-07-08 06:45 51°14.137 2°55.417 13 12 15.6 101500 90
2005-07-08 06:46 51°14.282 2°55.224 11.4 26 15.6 101500 90
2005-07-08 06:47 51°14.403 2°54.977 12.2 29 15.6 101500 90
2005-07-08 06:48 51°14.539 2°54.708 14.6 8 15.6 101500 91
2005-07-08 06:49 51°14.716 2°54.501 13.6 9 15.6 101510 90
2005-07-08 06:50 51°14.895 2°54.318 12.9 12 15.6 101500 91
2005-07-08 06:51 51°15.076 2°54.135 13.9 15 15.6 101500 91
2005-07-08 06:52 51°15.258 2°53.949 14.3 13 15.6 101500 91
2005-07-08 06:53 51°15.439 2°53.751 13.9 8 15.6 101510 91
2005-07-08 06:54 51°15.623 2°53.548 12.2 12 15.5 101510 91
2005-07-08 06:55 51°15.806 2°53.357 13.7 10 15.5 101510 91
2005-07-08 06:56 51°15.991 2°53.176 12.6 13 15.6 101510 91
2005-07-08 06:57 51°16.178 2°53.003 11.9 6 15.6 101510 91
2005-07-08 06:58 51°16.377 2°52.872 12.7 8 15.6 101520 91
2005-07-08 06:59 51°16.582 2°52.766 13.5 7 15.5 101510 90
2005-07-08 07:00 51°16.787 2°52.683 13.9 8 15.5 101510 90
2005-07-08 07:01 51°16.993 2°52.609 13.5 2 15.5 101510 90
2005-07-08 07:02 51°17.202 2°52.535 14.3 10 15.5 101500 90
2005-07-08 07:03 51°17.406 2°52.46 14 3 15.6 101510 91
2005-07-08 07:04 51°17.611 2°52.381 12.7 9 15.5 101510 90
2005-07-08 07:05 51°17.817 2°52.351 11.6 354 15.6 101520 91
2005-07-08 07:06 51°18.02 2°52.387 12.3 358 15.6 101490 90
2005-07-08 07:07 51°18.223 2°52.417 14 354 15.6 101510 90
2005-07-08 07:08 51°18.422 2°52.439 13.9 355 15.7 101490 90
2005-07-08 07:09 51°18.622 2°52.46 13.1 3 15.7 101500 90
2005-07-08 07:10 51°18.825 2°52.479 13.4 357 15.7 101500 90
2005-07-08 07:11 51°19.025 2°52.482 12.3 358 15.6 101510 89
2005-07-08 07:12 51°19.227 2°52.486 11.5 353 15.6 101500 89
2005-07-08 07:13 51°19.431 2°52.491 12.3 357 15.6 101500 89
2005-07-08 07:14 51°19.633 2°52.493 12.2 6 15.6 101510 89
2005-07-08 07:15 51°19.834 2°52.497 12.8 1 15.6 101510 89
2005-07-08 07:16 51°20.036 2°52.501 11.6 2 15.6 101520 88
2005-07-08 07:17 51°20.24 2°52.505 11.3 354 15.6 101500 89
2005-07-08 07:18 51°20.441 2°52.505 10.8 3 15.6 101520 88
2005-07-08 07:19 51°20.649 2°52.502 12.9 355 15.7 101510 89
2005-07-08 07:20 51°20.849 2°52.508 11.1 358 15.7 101510 89
2005-07-08 07:21 51°21.055 2°52.484 11.7 7 15.7 101510 89
2005-07-08 07:22 51°21.225 2°52.268 12.2 20 15.7 101520 89
2005-07-08 07:23 51°21.381 2°52.01 12.8 14 15.8 101510 90
2005-07-08 07:24 51°21.544 2°51.761 12.9 13 15.7 101520 89
2005-07-08 07:25 51°21.725 2°51.553 11.4 9 15.7 101530 89
2005-07-08 07:26 51°21.927 2°51.44 10.2 12 15.8 101520 89
2005-07-08 07:27 51°22.136 2°51.406 11.4 5 15.8 101520 89
2005-07-08 07:28 51°22.343 2°51.432 12.4 357 15.7 101520 88
2005-07-08 07:29 51°22.547 2°51.468 11.2 359 15.7 101520 88
2005-07-08 07:30 51°22.753 2°51.497 11.7 355 15.8 101520 89
2005-07-08 07:31 51°22.959 2°51.524 11.2 4 15.8 101510 89
2005-07-08 07:32 51°23.161 2°51.549 11.8 8 15.7 101530 88
2005-07-08 07:33 51°23.362 2°51.578 11.2 359 15.8 101530 88
2005-07-08 07:34 51°23.564 2°51.609 12 4 15.8 101520 88
2005-07-08 07:35 51°23.764 2°51.634 10.9 3 15.8 101520 87
2005-07-08 07:36 51°23.969 2°51.658 10.3 8 15.7 101520 87
2005-07-08 07:37 51°24.169 2°51.68 11.7 1 15.7 101530 87
2005-07-08 07:38 51°24.376 2°51.702 11.8 4 15.8 101520 87
2005-07-08 07:39 51°24.579 2°51.721 11.5 359 15.8 101520 87
2005-07-08 07:40 51°24.779 2°51.743 11.6 355 15.8 101520 87
2005-07-08 07:41 51°24.98 2°51.765 10.7 358 15.7 101520 87
2005-07-08 07:42 51°25.188 2°51.798 12.1 356 15.7 101520 88
2005-07-08 07:43 51°25.388 2°51.84 11.7 356 15.7 101520 88
2005-07-08 07:44 51°25.589 2°51.89 10.1 359 15.7 101510 88
2005-07-08 07:45 51°25.778 2°52.003 11.3 346 15.7 101520 88
2005-07-08 07:46 51°25.946 2°52.154 9.9 352 15.7 101530 88
2005-07-08 07:47 51°26.124 2°52.305 10.8 350 15.7 101520 89
2005-07-08 07:48 51°26.296 2°52.461 9.9 347 15.8 101520 88
2005-07-08 07:49 51°26.47 2°52.621 9.4 347 15.8 101530 88
2005-07-08 07:50 51°26.646 2°52.779 10 359 15.9 101520 87
2005-07-08 07:51 51°26.825 2°52.932 10 355 15.9 101530 85
2005-07-08 07:52 51°26.998 2°53.085 11.4 357 15.9 101530 84
2005-07-08 07:53 51°27.17 2°53.242 10.1 358 15.9 101530 82
2005-07-08 07:54 51°27.349 2°53.376 10.7 359 15.9 101530 82
2005-07-08 07:55 51°27.53 2°53.504 10.2 1 15.9 101520 81
2005-07-08 07:56 51°27.711 2°53.634 11.1 1 16 101520 81
2005-07-08 07:57 51°27.89 2°53.764 11.6 356 16 101530 81
2005-07-08 07:58 51°28.07 2°53.898 10.9 358 16 101520 81
2005-07-08 07:59 51°28.252 2°54.032 10.7 355 16.1 101530 80
2005-07-08 08:00 51°28.434 2°54.167 10.7 359 16.1 101530 81
2005-07-08 08:01 51°28.615 2°54.301 11.5 356 16 101530 81
2005-07-08 08:02 51°28.796 2°54.436 9.7 360 16 101520 81
2005-07-08 08:03 51°28.978 2°54.569 10.9 357 16 101530 82
2005-07-08 08:04 51°29.164 2°54.697 11.2 5 16 101530 80
2005-07-08 08:05 51°29.348 2°54.821 10.3 356 16.1 101530 80
2005-07-08 08:06 51°29.533 2°54.945 10.8 353 16.1 101530 80
2005-07-08 08:07 51°29.717 2°55.067 10.6 355 16.1 101520 80
2005-07-08 08:08 51°29.9 2°55.188 11.4 355 16 101510 79
2005-07-08 08:09 51°30.082 2°55.311 13.1 351 16 101540 78
2005-07-08 08:10 51°30.265 2°55.431 11.1 348 16 101530 77
2005-07-08 08:11 51°30.449 2°55.556 10.6 345 16 101510 78
2005-07-08 08:12 51°30.634 2°55.675 10.6 353 16.1 101520 78
2005-07-08 08:13 51°30.814 2°55.798 11.7 351 16.1 101550 79
2005-07-08 08:14 51°30.998 2°55.914 9.6 349 16.1 101520 79
2005-07-08 08:15 51°31.178 2°56.027 10.7 350 16.1 101530 79
2005-07-08 08:16 51°31.366 2°56.124 9.6 358 16.1 101530 79
2005-07-08 08:17 51°31.494 2°56.201 6.8 348 16.1 101540 79
2005-07-08 08:18 51°31.578 2°56.251 7 8 16.2 101530 80
2005-07-08 08:19 51°31.657 2°56.277 6.5 354 16.2 101540 78
2005-07-08 08:20 51°31.721 2°56.333 5.7 328 16.2 101540 79
2005-07-08 08:21 51°31.734 2°56.369 4.6 336 16.3 101550 78
2005-07-08 08:22 51°31.73 2°56.367 4.1 341 16.3 101550 78
2005-07-08 08:23 51°31.719 2°56.358 4.4 336 16.4 101540 77
2005-07-08 08:24 51°31.706 2°56.348 4.6 343 16.4 101550 77
2005-07-08 08:25 51°31.764 2°56.438 6.6 334 16.5 101540 77
2005-07-08 08:26 51°31.836 2°56.61 8.4 339 16.5 101530 78
2005-07-08 08:27 51°31.887 2°56.814 7.6 340 16.4 101550 77
2005-07-08 08:28 51°31.928 2°56.994 5.2 335 16.3 101540 76
2005-07-08 08:29 51°31.932 2°57.038 4.6 275 16.4 101550 77
2005-07-08 08:30 51°31.908 2°57.049 3.9 262 16.3 101540 76
2005-07-08 08:31 51°31.883 2°57.055 4.2 276 16.4 101550 76
2005-07-08 08:32 51°31.859 2°57.055 4.3 284 16.5 101550 76
2005-07-08 08:33 51°31.837 2°57.054 4 302 16.6 101550 76
2005-07-08 08:34 51°31.816 2°57.048 3.6 301 16.8 101540 76
2005-07-08 08:35 51°31.808 2°57.059 5.4 326 16.9 101550 75
2005-07-08 08:36 51°31.889 2°57.17 7.9 346 16.8 101530 75
2005-07-08 08:37 51°32.001 2°57.314 7.8 339 16.7 101540 74
2005-07-08 08:38 51°32.095 2°57.457 6.6 339 16.6 101530 74
2005-07-08 08:39 51°32.126 2°57.497 3.7 344 16.5 101550 75
2005-07-08 08:40 51°32.129 2°57.484 4.5 352 16.5 101550 75
2005-07-08 08:41 51°32.123 2°57.466 2.9 357 16.5 101550 75
2005-07-08 08:42 51°32.12 2°57.449 4.5 1 16.5 101550 75
2005-07-08 08:43 51°32.165 2°57.516 6.9 342 16.4 101540 75
2005-07-08 08:44 51°32.245 2°57.698 7.3 347 16.5 101540 75
2005-07-08 08:45 51°32.341 2°57.9 8.3 346 16.5 101530 76
2005-07-08 08:46 51°32.431 2°58.1 8.7 342 16.5 101540 75
2005-07-08 08:47 51°32.521 2°58.305 9 339 16.5 101530 75
2005-07-08 08:48 51°32.562 2°58.547 6.4 335 16.5 101530 74
2005-07-08 08:49 51°32.577 2°58.809 7.3 325 16.4 101540 73
2005-07-08 08:50 51°32.599 2°59.061 7.6 336 16.3 101540 73
2005-07-08 08:51 51°32.624 2°59.308 7.6 324 16.4 101530 73
2005-07-08 08:52 51°32.64 2°59.495 6.6 325 16.4 101540 74
2005-07-08 08:53 51°32.669 2°59.626 5.8 319 16.4 101540 74
2005-07-08 08:54 51°32.671 2°59.656 5.2 318 16.4 101550 74
2005-07-08 08:55 51°32.662 2°59.659 4.5 311 16.5 101550 74
2005-07-08 08:56 51°32.648 2°59.654 5 312 16.5 101550 74
2005-07-08 08:57 51°32.635 2°59.643 5 320 16.7 101550 74
2005-07-08 08:58 51°32.619 2°59.631 5 308 16.7 101550 73
2005-07-08 08:59 51°32.604 2°59.62 4.7 306 16.7 101560 73
2005-07-08 09:00 51°32.59 2°59.61 5 305 16.8 101560 73
2005-07-08 09:01 51°32.576 2°59.602 5.7 227 16.8 101560 73
2005-07-08 09:02 51°32.562 2°59.593 5.7 306 16.8 101550 73
2005-07-08 09:03 51°32.548 2°59.587 5.9 303 16.7 101550 72
2005-07-08 09:04 51°32.547 2°59.615 8.1 316 16.8 101550 73
2005-07-08 09:05 51°32.603 2°59.697 8.8 334 16.7 101530 73
2005-07-08 09:06 51°32.702 2°59.819 9.3 344 16.6 101530 74
2005-07-08 09:07 51°32.803 2°59.953 8.9 336 16.6 101530 75
2005-07-08 09:08 51°32.903 3°0.084 8.1 341 16.5 101530 75
2005-07-08 09:09 51°32.958 3°0.164 6.3 327 16.4 101540 74
2005-07-08 09:10 51°32.97 3°0.173 5.5 343 16.5 101540 75
2005-07-08 09:11 51°32.966 3°0.153 4.8 345 16.5 101550 76
2005-07-08 09:12 51°32.953 3°0.129 4.8 330 16.5 101550 76
2005-07-08 09:13 51°32.935 3°0.107 5.4 320 16.4 101550 75
2005-07-08 09:14 51°32.944 3°0.143 7.5 334 16.4 101550 76
2005-07-08 09:15 51°33.022 3°0.283 8.8 332 16.4 101540 75
2005-07-08 09:16 51°33.106 3°0.46 9.3 340 16.3 101530 76
2005-07-08 09:17 51°33.195 3°0.638 9.4 332 16.3 101540 77
2005-07-08 09:18 51°33.256 3°0.77 6.6 334 16.2 101560 78
2005-07-08 09:19 51°33.267 3°0.785 5.8 337 16.2 101550 78
2005-07-08 09:20 51°33.264 3°0.766 5.5 340 16.2 101560 78
2005-07-08 09:21 51°33.251 3°0.743 5.1 336 16.2 101560 78
2005-07-08 09:22 51°33.231 3°0.718 4.5 317 16.1 101570 78
2005-07-08 09:23 51°33.208 3°0.692 5.2 309 16.2 101550 78
2005-07-08 09:24 51°33.182 3°0.663 4.3 311 16.2 101560 78
2005-07-08 09:25 51°33.154 3°0.634 4.5 282 16.4 101560 79
2005-07-08 09:26 51°33.153 3°0.67 7.7 334 16.4 101550 78
2005-07-08 09:27 51°33.231 3°0.771 8.6 338 16.5 101560 77
2005-07-08 09:28 51°33.328 3°0.932 8.5 338 16.4 101540 77
2005-07-08 09:29 51°33.418 3°1.102 9.5 342 16.4 101540 78
2005-07-08 09:30 51°33.51 3°1.279 10.4 341 16.4 101540 79
2005-07-08 09:31 51°33.574 3°1.398 6.9 338 16.3 101550 78
2005-07-08 09:32 51°33.58 3°1.411 4.7 355 16.2 101570 77
2005-07-08 09:33 51°33.574 3°1.402 4.7 343 16.2 101570 79
2005-07-08 09:34 51°33.56 3°1.386 4.8 338 16.1 101560 78
2005-07-08 09:35 51°33.54 3°1.368 4.4 339 16.1 101570 78
2005-07-08 09:36 51°33.537 3°1.353 5.2 21 16.1 101570 77
2005-07-08 09:37 51°33.584 3°1.344 5.6 341 16 101570 77
2005-07-08 09:38 51°33.567 3°1.441 5.2 277 16 101560 78
2005-07-08 09:39 51°33.465 3°1.411 3.2 124 16 101570 78
2005-07-08 09:40 51°33.431 3°1.374 4.4 154 16 101570 78
2005-07-08 09:41 51°33.414 3°1.367 4.9 142 15.9 101580 79
2005-07-08 09:42 51°33.393 3°1.353 4.1 135 15.8 101560 79
2005-07-08 09:43 51°33.373 3°1.338 3.6 153 15.7 101560 80
2005-07-08 09:44 51°33.353 3°1.322 4.6 159 15.8 101570 80
2005-07-08 09:45 51°33.333 3°1.303 3.8 166 15.7 101560 80
2005-07-08 09:46 51°33.309 3°1.279 3.3 160 15.7 101570 79
2005-07-08 09:47 51°33.257 3°1.228 2.4 127 15.7 101570 80
2005-07-08 09:48 51°33.192 3°1.13 3.3 103 15.8 101570 80
2005-07-08 09:49 51°33.139 3°0.999 4.2 89 15.8 101560 80
2005-07-08 09:50 51°33.1 3°0.87 3.6 97 15.7 101560 80
2005-07-08 09:51 51°33.066 3°0.756 3.8 86 15.8 101560 81
2005-07-08 09:52 51°33.036 3°0.661 3.6 79 15.8 101560 81
2005-07-08 09:53 51°33.007 3°0.581 4.1 101 15.7 101560 80
2005-07-08 09:54 51°32.978 3°0.513 3.1 99 15.7 101560 80
2005-07-08 09:55 51°32.95 3°0.454 3.4 110 15.8 101550 80
2005-07-08 09:56 51°32.922 3°0.394 4.1 96 15.8 101570 80
2005-07-08 09:57 51°32.894 3°0.335 3.9 104 15.8 101560 79
2005-07-08 09:58 51°32.866 3°0.275 3.3 88 15.8 101560 79
2005-07-08 09:59 51°32.84 3°0.213 3.9 94 15.8 101570 78
2005-07-08 10:00 51°32.814 3°0.145 3.3 99 15.8 101570 79
2005-07-08 10:01 51°32.789 3°0.077 3.7 105 15.8 101570 78
2005-07-08 10:02 51°32.765 3°0.007 3.7 96 15.9 101570 78
2005-07-08 10:03 51°32.74 2°59.94 2.9 101 15.8 101570 78
2005-07-08 10:04 51°32.715 2°59.871 4.2 110 15.8 101570 78
2005-07-08 10:05 51°32.689 2°59.805 4 102 15.8 101560 78
2005-07-08 10:06 51°32.661 2°59.742 3.5 102 15.8 101570 78
2005-07-08 10:07 51°32.636 2°59.673 3.8 98 15.8 101570 78
2005-07-08 10:08 51°32.612 2°59.573 4.9 91 15.9 101570 78
2005-07-08 10:09 51°32.595 2°59.453 4.3 74 15.9 101570 78
2005-07-08 10:10 51°32.584 2°59.329 5.1 83 15.8 101560 78
2005-07-08 10:11 51°32.581 2°59.202 4.2 58 15.8 101570 79
2005-07-08 10:12 51°32.588 2°59.088 5 52 15.7 101560 78
2005-07-08 10:13 51°32.594 2°58.982 4.2 53 15.6 101570 77
2005-07-08 10:14 51°32.594 2°58.902 4 56 15.6 101570 77
2005-07-08 10:15 51°32.588 2°58.841 3.8 70 15.6 101570 77
2005-07-08 10:16 51°32.576 2°58.788 4.1 80 15.7 101570 77
2005-07-08 10:17 51°32.56 2°58.746 3.1 80 15.7 101570 76
2005-07-08 10:18 51°32.543 2°58.711 3.3 80 15.7 101570 76
2005-07-08 10:19 51°32.524 2°58.681 2.8 78 15.7 101570 76
2005-07-08 10:20 51°32.505 2°58.654 2.9 87 15.8 101570 77
2005-07-08 10:21 51°32.485 2°58.63 4.2 82 15.8 101570 78
2005-07-08 10:22 51°32.467 2°58.601 3.9 53 15.9 101570 80
2005-07-08 10:23 51°32.45 2°58.516 4.8 93 15.9 101560 80
2005-07-08 10:24 51°32.412 2°58.401 3.6 79 15.8 101560 80
2005-07-08 10:25 51°32.385 2°58.287 4.6 81 15.8 101560 80
2005-07-08 10:26 51°32.352 2°58.177 4.1 96 15.7 101560 80
2005-07-08 10:27 51°32.31 2°58.083 3 109 15.7 101570 79
2005-07-08 10:28 51°32.268 2°58.007 3.5 100 15.8 101570 80
2005-07-08 10:29 51°32.232 2°57.946 3.3 97 15.8 101570 79
2005-07-08 10:30 51°32.198 2°57.891 3.9 97 15.8 101560 79
2005-07-08 10:31 51°32.163 2°57.844 3.5 101 15.8 101560 78
2005-07-08 10:32 51°32.132 2°57.8 3.5 116 15.8 101570 78
2005-07-08 10:33 51°32.101 2°57.757 3.9 108 15.9 101570 78
2005-07-08 10:34 51°32.073 2°57.715 2.8 108 15.8 101560 77
2005-07-08 10:35 51°32.044 2°57.672 3 114 15.8 101560 76
2005-07-08 10:36 51°32.017 2°57.626 4.1 104 15.9 101560 77
2005-07-08 10:37 51°31.99 2°57.582 3.4 98 15.9 101570 77
2005-07-08 10:38 51°31.964 2°57.53 4 92 15.9 101560 76
2005-07-08 10:39 51°31.936 2°57.464 4.5 87 15.9 101560 77
2005-07-08 10:40 51°31.911 2°57.394 4.7 92 15.8 101560 76
2005-07-08 10:41 51°31.886 2°57.325 3.9 99 15.8 101560 77
2005-07-08 10:42 51°31.86 2°57.257 3.7 100 15.9 101560 77
2005-07-08 10:43 51°31.833 2°57.189 4 91 15.8 101560 76
2005-07-08 10:44 51°31.804 2°57.119 3.7 88 15.8 101560 76
2005-07-08 10:45 51°31.778 2°57.031 3.8 83 15.8 101560 76
2005-07-08 10:46 51°31.759 2°56.926 3.8 64 15.8 101550 76
2005-07-08 10:47 51°31.754 2°56.825 3.6 49 15.7 101550 76
2005-07-08 10:48 51°31.761 2°56.729 4.8 45 15.7 101550 76
2005-07-08 10:49 51°31.777 2°56.649 5.2 40 15.7 101560 77
2005-07-08 10:50 51°31.785 2°56.596 4 47 15.7 101560 77
2005-07-08 10:51 51°31.803 2°56.558 5.1 1 15.7 101560 77
2005-07-08 10:52 51°31.879 2°56.638 8.5 352 15.8 101550 77
2005-07-08 10:53 51°32.019 2°56.778 10.5 356 15.9 101540 77
2005-07-08 10:54 51°32.156 2°56.947 9.9 355 16 101540 76
2005-07-08 10:55 51°32.297 2°57.122 10.4 355 16 101540 76
2005-07-08 10:56 51°32.434 2°57.294 9.4 353 16.1 101550 76
2005-07-08 10:57 51°32.572 2°57.469 9.7 350 16.1 101550 76
2005-07-08 10:58 51°32.714 2°57.646 9.8 357 16.1 101550 75
2005-07-08 10:59 51°32.853 2°57.816 8.5 355 16.1 101550 75
2005-07-08 11:00 51°32.969 2°57.96 6.5 358 16.1 101550 75
2005-07-08 11:01 51°33.03 2°58.037 5.8 349 16.2 101550 75
2005-07-08 11:02 51°33.063 2°58.091 3.8 348 16.2 101560 74
2005-07-08 11:03 51°33.065 2°58.107 4.2 337 16.2 101560 73
2005-07-08 11:04 51°33.051 2°58.117 4 320 16.3 101560 74
2005-07-08 11:05 51°33.033 2°58.124 3.7 316 16.3 101560 74
2005-07-08 11:06 51°33.018 2°58.138 4.1 348 16.4 101560 75
2005-07-08 11:07 51°33.048 2°58.182 7 6 16.4 101560 76
2005-07-08 11:08 51°33.107 2°58.23 6.2 353 16.3 101550 75
2005-07-08 11:09 51°33.147 2°58.292 6.4 359 16.3 101560 75
2005-07-08 11:10 51°33.178 2°58.345 5.4 347 16.2 101560 75
2005-07-08 11:11 51°33.203 2°58.394 5.4 351 16.2 101560 75
2005-07-08 11:12 51°33.232 2°58.449 5.9 351 16.2 101560 74
2005-07-08 11:13 51°33.262 2°58.506 6.3 346 16.3 101570 75
2005-07-08 11:14 51°33.291 2°58.561 5.5 347 16.3 101560 75
2005-07-08 11:15 51°33.322 2°58.614 6.2 355 16.3 101560 75
2005-07-08 11:16 51°33.354 2°58.661 5.6 353 16.3 101570 75
2005-07-08 11:17 51°33.386 2°58.711 6.1 355 16.3 101560 75
2005-07-08 11:18 51°33.418 2°58.762 5.9 346 16.3 101560 76
2005-07-08 11:19 51°33.452 2°58.814 5.8 343 16.3 101570 75
2005-07-08 11:20 51°33.485 2°58.862 5.9 347 16.3 101560 75
2005-07-08 11:21 51°33.518 2°58.91 5.8 352 16.3 101570 75
2005-07-08 11:22 51°33.551 2°58.961 5.8 358 16.3 101560 74
2005-07-08 11:23 51°33.585 2°59.007 6 345 16.3 101560 76
2005-07-08 11:24 51°33.618 2°59.055 5.3 342 16.3 101560 76
2005-07-08 11:25 51°33.651 2°59.105 6.2 357 16.3 101570 76
2005-07-08 11:26 51°33.683 2°59.153 6.8 340 16.3 101570 76
2005-07-08 11:27 51°33.716 2°59.201 6.6 343 16.3 101570 76
2005-07-08 11:28 51°33.75 2°59.25 6.8 343 16.3 101560 75
2005-07-08 11:29 51°33.783 2°59.305 5.7 337 16.3 101570 76
2005-07-08 11:30 51°33.807 2°59.374 6.5 333 16.3 101560 76
2005-07-08 11:31 51°33.822 2°59.457 5.4 331 16.2 101560 76
2005-07-08 11:32 51°33.829 2°59.548 5.4 319 16.2 101570 76
2005-07-08 11:33 51°33.823 2°59.64 6.1 318 16.2 101570 77
2005-07-08 11:34 51°33.811 2°59.7 4.7 316 16.1 101570 76
2005-07-08 11:35 51°33.806 2°59.756 6.8 333 16.2 101560 77
2005-07-08 11:36 51°33.887 2°59.78 11.1 13 16.1 101560 77
2005-07-08 11:37 51°34.059 2°59.726 11.3 20 16.1 101560 78
2005-07-08 11:38 51°34.234 2°59.65 11.4 15 16.1 101550 79
2005-07-08 11:39 51°34.41 2°59.575 10.6 11 16 101540 79
2005-07-08 11:40 51°34.592 2°59.498 11.3 16 16 101550 79
2005-07-08 11:41 51°34.774 2°59.421 11.1 15 15.9 101560 79
2005-07-08 11:42 51°34.95 2°59.293 11.6 35 16 101560 80
2005-07-08 11:43 51°34.989 2°59.09 7 86 15.9 101570 80
2005-07-08 11:44 51°34.957 2°58.992 6 141 15.8 101580 81
2005-07-08 11:45 51°34.946 2°58.979 5.5 146 15.7 101580 82
2005-07-08 11:46 51°34.929 2°58.96 6.3 134 15.7 101580 82
2005-07-08 11:47 51°34.909 2°58.94 6.1 128 15.7 101580 83
2005-07-08 11:48 51°34.887 2°58.919 5.5 138 15.7 101580 83
2005-07-08 11:49 51°34.862 2°58.879 6.2 103 15.7 101580 84
2005-07-08 11:50 51°34.822 2°58.759 5.5 93 15.7 101590 84
2005-07-08 11:51 51°34.787 2°58.611 6.6 89 15.7 101590 85
2005-07-08 11:52 51°34.759 2°58.476 6.5 96 15.7 101580 84
2005-07-08 11:53 51°34.729 2°58.35 5.6 98 15.7 101580 84
2005-07-08 11:54 51°34.702 2°58.239 5.3 103 15.7 101580 85
2005-07-08 11:55 51°34.678 2°58.136 5.9 104 15.7 101590 84
2005-07-08 11:56 51°34.656 2°58.053 6 112 15.6 101590 84
2005-07-08 11:57 51°34.634 2°57.986 5.3 128 15.7 101590 85
2005-07-08 11:58 51°34.61 2°57.928 6 122 15.7 101590 85
2005-07-08 11:59 51°34.584 2°57.869 6.1 125 15.6 101600 84
2005-07-08 12:00 51°34.558 2°57.808 5.9 119 15.6 101590 84
2005-07-08 12:01 51°34.533 2°57.746 6.3 122 15.6 101590 85
2005-07-08 12:02 51°34.507 2°57.683 6 110 15.6 101590 84
2005-07-08 12:03 51°34.482 2°57.62 5.8 115 15.6 101590 85
2005-07-08 12:04 51°34.455 2°57.56 5.4 115 15.6 101590 85
2005-07-08 12:05 51°34.427 2°57.503 6 129 15.7 101590 86
2005-07-08 12:06 51°34.397 2°57.446 5.3 130 15.7 101590 86
2005-07-08 12:07 51°34.365 2°57.388 4.9 123 15.6 101590 85
2005-07-08 12:08 51°34.333 2°57.335 5.9 130 15.6 101590 85
2005-07-08 12:09 51°34.296 2°57.271 5.5 124 15.6 101590 86
2005-07-08 12:10 51°34.262 2°57.174 5.9 102 15.6 101580 85
2005-07-08 12:11 51°34.239 2°57.064 6.7 95 15.6 101580 85
2005-07-08 12:12 51°34.221 2°56.948 7 87 15.5 101590 84
2005-07-08 12:13 51°34.216 2°56.832 6.7 82 15.5 101590 85
2005-07-08 12:14 51°34.225 2°56.721 6.5 74 15.5 101580 84
2005-07-08 12:15 51°34.246 2°56.617 6.7 54 15.5 101580 85
2005-07-08 12:16 51°34.264 2°56.545 6 66 15.5 101590 86
2005-07-08 12:17 51°34.273 2°56.493 5.9 52 15.5 101600 86
2005-07-08 12:18 51°34.281 2°56.439 7.1 62 15.4 101590 85
2005-07-08 12:19 51°34.348 2°56.261 10.2 47 15.4 101580 85
2005-07-08 12:20 51°34.393 2°55.98 10.4 51 15.4 101570 85
2005-07-08 12:21 51°34.418 2°55.632 9.4 50 15.4 101560 85
2005-07-08 12:22 51°34.449 2°55.29 9.6 53 15.4 101570 85
2005-07-08 12:23 51°34.517 2°54.963 11 42 15.4 101570 85
2005-07-08 12:24 51°34.582 2°54.707 8.7 46 15.4 101570 85
2005-07-08 12:25 51°34.665 2°54.593 9.3 19 15.4 101580 84
2005-07-08 12:26 51°34.735 2°54.61 7.1 331 15.4 101580 84
2005-07-08 12:27 51°34.758 2°54.66 5.7 331 15.4 101590 84
2005-07-08 12:28 51°34.761 2°54.674 5.6 328 15.4 101580 83
2005-07-08 12:29 51°34.756 2°54.677 6.5 296 15.4 101590 83
2005-07-08 12:30 51°34.749 2°54.68 5.1 282 15.6 101590 84
2005-07-08 12:31 51°34.742 2°54.685 7.5 277 15.6 101590 84
2005-07-08 12:32 51°34.734 2°54.69 6.8 275 15.6 101600 83
2005-07-08 12:33 51°34.738 2°54.733 7.5 334 15.6 101600 83
2005-07-08 12:34 51°34.778 2°54.752 5.8 44 15.6 101600 83
2005-07-08 12:35 51°34.768 2°54.763 5.9 69 15.5 101590 83
2005-07-08 12:36 51°34.77 2°54.709 6.2 110 15.4 101590 83
2005-07-08 12:37 51°34.763 2°54.663 6.2 113 15.4 101600 84
2005-07-08 12:38 51°34.758 2°54.655 7 113 15.4 101590 83
2005-07-08 12:39 51°34.753 2°54.664 5.4 118 15.4 101590 84
2005-07-08 12:40 51°34.747 2°54.67 6.6 116 15.4 101600 85
2005-07-08 12:41 51°34.741 2°54.676 6.3 119 15.4 101600 85
2005-07-08 12:42 51°34.733 2°54.67 6.4 116 15.4 101600 85
2005-07-08 12:43 51°34.665 2°54.574 1.9 130 15.4 101600 86
2005-07-08 12:44 51°34.474 2°54.528 1.2 35 15.4 101600 85
2005-07-08 12:45 51°34.257 2°54.514 1.2 357 15.4 101610 85
2005-07-08 12:46 51°34.034 2°54.516 1.2 227 15.4 101610 85
2005-07-08 12:47 51°33.817 2°54.508 0.8 297 15.4 101600 85
2005-07-08 12:48 51°33.594 2°54.498 0.6 346 15.5 101610 85
2005-07-08 12:49 51°33.375 2°54.494 0.6 32 15.4 101600 85
2005-07-08 12:50 51°33.155 2°54.49 0.3 3 15.4 101610 84
2005-07-08 12:51 51°32.934 2°54.485 1.6 11 15.5 101610 85
2005-07-08 12:52 51°32.714 2°54.48 1.7 351 15.5 101610 85
2005-07-08 12:53 51°32.491 2°54.481 1.3 357 15.6 101600 86
2005-07-08 12:54 51°32.269 2°54.484 2.6 323 15.6 101600 85
2005-07-08 12:55 51°32.047 2°54.485 1.4 1 15.7 101610 86
2005-07-08 12:56 51°31.828 2°54.491 1 355 15.7 101600 86
2005-07-08 12:57 51°31.607 2°54.495 1.1 2 15.6 101600 85
2005-07-08 12:58 51°31.384 2°54.499 1.2 358 15.6 101600 85
2005-07-08 12:59 51°31.16 2°54.52 1.8 350 15.5 101600 85
2005-07-08 13:00 51°30.946 2°54.508 1.7 17 15.6 101600 85
2005-07-08 13:01 51°30.725 2°54.482 1.8 74 15.6 101600 86
2005-07-08 13:02 51°30.511 2°54.454 0.8 72 15.6 101600 86
2005-07-08 13:03 51°30.3 2°54.421 0.5 74 15.5 101600 85
2005-07-08 13:04 51°30.09 2°54.392 1.5 71 15.5 101600 86
2005-07-08 13:05 51°29.883 2°54.364 0.6 88 15.5 101600 86
2005-07-08 13:06 51°29.678 2°54.334 2 55 15.5 101600 86
2005-07-08 13:07 51°29.469 2°54.299 2.5 94 15.5 101600 86
2005-07-08 13:08 51°29.258 2°54.264 2.4 106 15.5 101600 86
2005-07-08 13:09 51°29.048 2°54.228 2.1 98 15.5 101600 87
2005-07-08 13:10 51°28.842 2°54.192 1.6 108 15.4 101600 87
2005-07-08 13:11 51°28.632 2°54.192 0.1 105 15.4 101600 86
2005-07-08 13:12 51°28.424 2°54.191 0.1 154 15.4 101600 86
2005-07-08 13:13 51°28.211 2°54.186 0.3 116 15.4 101600 87
2005-07-08 13:14 51°28 2°54.192 0.6 35 15.5 101590 87
2005-07-08 13:15 51°27.794 2°54.19 1.6 96 15.5 101600 87
2005-07-08 13:16 51°27.589 2°54.193 1 126 15.6 101600 87
2005-07-08 13:17 51°27.381 2°54.191 1.1 90 15.5 101590 87
2005-07-08 13:18 51°27.176 2°54.196 1.3 107 15.5 101590 87
2005-07-08 13:19 51°26.97 2°54.2 0.9 133 15.5 101590 87
2005-07-08 13:20 51°26.762 2°54.205 0.8 72 15.5 101590 87
2005-07-08 13:21 51°26.553 2°54.207 0.7 4 15.5 101590 87
2005-07-08 13:22 51°26.35 2°54.21 0.2 27 15.5 101590 87
2005-07-08 13:23 51°26.141 2°54.207 0.8 15 15.5 101590 87
2005-07-08 13:24 51°25.929 2°54.203 0.5 44 15.5 101590 87
2005-07-08 13:25 51°25.719 2°54.204 0.3 37 15.5 101590 86
2005-07-08 13:26 51°25.511 2°54.195 0.6 17 15.5 101590 86
2005-07-08 13:27 51°25.301 2°54.188 0.3 359 15.5 101590 85
2005-07-08 13:28 51°25.087 2°54.181 0.4 354 15.4 101590 85
2005-07-08 13:29 51°24.876 2°54.18 0.6 11 15.4 101590 85
2005-07-08 13:30 51°24.662 2°54.176 0.4 11 15.5 101590 85
2005-07-08 13:31 51°24.452 2°54.173 0.8 322 15.5 101580 85
2005-07-08 13:32 51°24.239 2°54.175 1.1 300 15.6 101580 85
2005-07-08 13:33 51°24.037 2°54.174 1 12 15.7 101590 85
2005-07-08 13:34 51°23.833 2°54.178 0.9 21 15.7 101580 85
2005-07-08 13:35 51°23.628 2°54.162 2.1 91 15.6 101590 84
2005-07-08 13:36 51°23.424 2°54.141 1.8 108 15.6 101590 85
2005-07-08 13:37 51°23.217 2°54.124 2.4 98 15.5 101580 85
2005-07-08 13:38 51°23.014 2°54.087 2.2 90 15.5 101580 84
2005-07-08 13:39 51°22.81 2°54.057 1.8 113 15.5 101580 85
2005-07-08 13:40 51°22.607 2°54.026 1.5 105 15.4 101590 84
2005-07-08 13:41 51°22.406 2°54.002 1.5 112 15.4 101580 85
2005-07-08 13:42 51°22.2 2°53.971 1.3 99 15.4 101580 85
2005-07-08 13:43 51°21.998 2°53.941 2.7 95 15.5 101580 86
2005-07-08 13:44 51°21.801 2°53.908 1.4 85 15.5 101590 85
2005-07-08 13:45 51°21.597 2°53.875 1.5 110 15.5 101580 86
2005-07-08 13:46 51°21.396 2°53.849 1.5 39 15.5 101580 86
2005-07-08 13:47 51°21.195 2°53.818 3.1 69 15.6 101570 87
2005-07-08 13:48 51°20.994 2°53.794 3 105 15.6 101580 86
2005-07-08 13:49 51°20.795 2°53.767 2.8 73 15.6 101570 87
2005-07-08 13:50 51°20.595 2°53.739 2.7 91 15.6 101570 86
2005-07-08 13:51 51°20.392 2°53.714 2.4 56 15.5 101570 85
2005-07-08 13:52 51°20.193 2°53.686 2.8 85 15.5 101570 85
2005-07-08 13:53 51°19.993 2°53.663 2 56 15.5 101570 85
2005-07-08 13:54 51°19.789 2°53.636 2.8 40 15.5 101570 85
2005-07-08 13:55 51°19.587 2°53.606 1.8 42 15.5 101570 85
2005-07-08 13:56 51°19.382 2°53.577 2.4 90 15.5 101570 85
2005-07-08 13:57 51°19.179 2°53.552 3.1 60 15.6 101570 87
2005-07-08 13:58 51°18.975 2°53.522 2.9 78 15.5 101570 85
2005-07-08 13:59 51°18.771 2°53.504 2.9 82 15.5 101570 86
2005-07-08 14:00 51°18.567 2°53.474 1.9 73 15.5 101560 85
2005-07-08 14:01 51°18.363 2°53.441 3.5 77 15.5 101570 86
2005-07-08 14:02 51°18.164 2°53.391 2.8 58 15.5 101560 86
2005-07-08 14:03 51°17.968 2°53.345 3.5 83 15.5 101560 85
2005-07-08 14:04 51°17.762 2°53.321 3 74 15.5 101570 85
2005-07-08 14:05 51°17.561 2°53.308 3 63 15.5 101570 85
2005-07-08 14:06 51°17.358 2°53.293 3 61 15.5 101560 85
2005-07-08 14:07 51°17.15 2°53.336 1.6 37 15.5 101560 85
2005-07-08 14:08 51°16.952 2°53.394 1.6 21 15.6 101570 85
2005-07-08 14:09 51°16.744 2°53.457 2.4 45 15.6 101560 85
2005-07-08 14:10 51°16.538 2°53.514 1.3 24 15.7 101560 86
2005-07-08 14:11 51°16.331 2°53.57 2.6 30 15.6 101560 84
2005-07-08 14:12 51°16.126 2°53.628 2.6 22 15.6 101560 84
2005-07-08 14:13 51°15.918 2°53.703 2 8 15.6 101560 84
2005-07-08 14:14 51°15.71 2°53.783 1.7 4 15.6 101560 83
2005-07-08 14:15 51°15.505 2°53.88 1.9 346 15.6 101560 83
2005-07-08 14:16 51°15.314 2°54.033 2.6 334 15.6 101560 84
2005-07-08 14:17 51°15.121 2°54.208 2 336 15.7 101560 83
2005-07-08 14:18 51°14.935 2°54.38 1.6 340 15.7 101570 83
2005-07-08 14:19 51°14.755 2°54.585 2.9 327 15.8 101560 83
2005-07-08 14:20 51°14.578 2°54.785 2.3 308 15.8 101560 83
2005-07-08 14:21 51°14.416 2°54.973 4 308 15.8 101560 83
2005-07-08 14:22 51°14.296 2°55.181 3.4 310 15.9 101560 83
2005-07-08 14:23 51°14.192 2°55.349 0.9 279 15.9 101570 83
2005-07-08 14:24 51°14.082 2°55.433 1.3 227 15.9 101570 82
2005-07-08 14:25 51°13.982 2°55.507 1.2 233 15.9 101570 82
2005-07-08 14:26 51°13.881 2°55.588 0.6 258 15.9 101580 82
2005-07-08 14:27 51°13.768 2°55.691 2.3 282 16 101570 82
2005-07-08 14:28 51°13.68 2°55.837 4 274 16.1 101580 82
2005-07-08 14:29 51°13.636 2°55.936 2.1 226 16.1 101580 82
2005-07-08 14:30 51°13.604 2°56.022 2.1 288 16.1 101580 82
2005-07-08 14:31 51°13.597 2°56.094 3.2 237 16.2 101580 82
2005-07-08 14:32 51°13.596 2°56.104 2.8 234 16.2 101580 82